{"data":{"norad_id":61568,"epoch":"2026-05-25T03:56:34.196352Z","epoch_age_seconds":61047,"freshness":"FRESH","line1":"1 61568U 24185S   26145.16428468  .00000596  00000+0  23336-3 0  9992","line2":"2 61568  88.9836  57.6849 0008686 101.1554 259.0617 14.28238297 93507","mean_motion":14.28238297,"eccentricity":0.0008686,"inclination_deg":88.9836,"raan_deg":57.6849,"arg_perigee_deg":101.1554,"mean_anomaly_deg":259.0617,"bstar":0.00023336,"rev_number":9350,"period_min":100.82351124632,"perigee_km":791.39267176993,"apogee_km":803.85840645287,"semimajor_km":7175.7625391114,"source":"CELESTRAK","updated_at":"2026-05-25T13:38:02.417346Z"}}